Regional Weather Roundup
Issued by NWS

Home | Current Version | Previous Version | Graphics & Text | Print | Product List | Glossary Off
Versions: 1 2 3 4 5 6 7 8 9 10 11 12 13 14 15 16 17 18 19 20 21 22 23 24 25 26 27 28

000
ASUS45 KBOU 281907
RWRCO

WEATHER ROUNDUP FOR COLORADO
NATIONAL WEATHER SERVICE DENVER/BOULDER CO
100 PM MDT SUN AUG 28 2016

NOTE: "FAIR" INDICATES FEW OR NO CLOUDS BELOW 12000 FEET WITH NO
SIGNIFICANT WEATHER AND/OR OBSTRUCTIONS TO VISIBILITY.

COZ001>005-013-030-031-282000-
...NORTHWEST COLORADO...

CITY           SKY/WX    TMP DP  RH WIND       PRES   REMARKS
CRAIG          FAIR      79  24  13 VRB5      30.27F
HAYDEN         FAIR      73  28  19 CALM      30.29F
MEEKER         FAIR      77  37  23 VRB5      30.28F
MOUNT WERNER   NOT AVBL
STEAMBOAT SPGS FAIR      74  31  21 S6        30.29F
WALDEN         FAIR      70  25  18 SE6       30.39F
$$

COZ006>008-011-282000-
...WEST CENTRAL VALLEYS...

CITY           SKY/WX    TMP DP  RH WIND       PRES   REMARKS
GRAND JUNCTION PTSUNNY   66  51  58 E6        30.26F
MONTROSE       FAIR      74  45  35 NW9       30.28F
EAGLE          MOSUNNY   72  41  33 W6        30.31F
RIFLE          FAIR      72  48  42 NW8       30.26F
DELTA          NOT AVBL
NUCLA          FAIR     N/A N/A N/A CALM      30.34F THUNDER
$$

COZ017>023-064>068-282000-
...SOUTHWEST COLORADO...

CITY           SKY/WX    TMP DP  RH WIND       PRES   REMARKS
DURANGO        FAIR      68  43  40 SW7       30.31F
CORTEZ         FAIR      66  50  56 SW8       30.29F
PAGOSA SPRINGS FAIR      67  37  32 S6        30.38F
TELLURIDE      FAIR      61  45  56 W8        30.46F THUNDER
WOLF CREEK PAS PTSUNNY   46  36  66 S8G16     30.64S
$$

COZ009-010-012-014-032>034-037-058>063-282000-
...CENTRAL COLORADO...

CITY           SKY/WX    TMP DP  RH WIND       PRES   REMARKS
ASPEN          FAIR      66  42  41 CALM      30.37F
BUENA VISTA    FAIR      68  36  30 CALM      30.36F
COPPER MTN     PTSUNNY   54  41  62 CALM      30.64S
BERTHOUD PASS  CLOUDY    41  28  60 NW6       30.67S
COTTONWOOD PAS FAIR      64  36  34 N5        30.49F
GUNNISON       FAIR      64  43  45 CALM      30.40F
KREMMLING      FAIR      73  27  17 E5        30.35F
LEADVILLE      CLOUDY    53  37  54 VRB3      30.49F
MONARCH PASS   FAIR      48  34  57 W6        30.72S
SALIDA         FAIR      73  39  29 E5        30.40F
SUNLIGHT       CLOUDY    54  43  66 CALM      30.59F
WILKERSON PASS CLOUDY    52  37  58 CALM      30.61S THUNDER
$$

COZ069>075-282000-
...SAN LUIS VALLEY/SANGRE DE CRISTO MOUNTAINS...

CITY           SKY/WX    TMP DP  RH WIND       PRES   REMARKS
ALAMOSA        FAIR      70  40  33 VRB3      30.34F
LA VETA PASS   FAIR      63  34  34 SW8G18    30.50S
SAGUACHE       FAIR      68  37  32 S5        30.37F
$$

COZ035-036-038>040-282000-
...NORTHERN COLORADO FRONT RANGE...

CITY           SKY/WX    TMP DP  RH WIND       PRES   REMARKS
DENVER INTL AP FAIR      83  35  18 VRB5      30.17F
DMNS CITY PARK   N/A     83  35  18 NE6       30.17S
AURORA         MOSUNNY   82  35  18 NW8       30.19F
FRONT RANGE AP MOSUNNY   84  34  16 E5        30.19F
ERIE MUNI ARPT FAIR      87  26  11 NW6       30.15F
BOULDER MUN AP FAIR      82  32  16 E5        30.16F
CENTENNIAL     FAIR      82  34  17 N8        30.20F
BROOMFIELD     MOSUNNY   84  32  15 E8        30.19F
FORT COLLINS   FAIR      84  36  17 NE8       30.13F
LONGMONT       FAIR      88  32  13 NE6       30.16F
$$

COZ041-046-047-076>085-087-088-282000-
...PIKES PEAK/PALMER DIVIDE AND SOUTHERN FOOTHILLS...

CITY           SKY/WX    TMP DP  RH WIND       PRES   REMARKS
COLO. SPRINGS  TSTM      76  43  30 N18       30.22F
A. F. ACADEMY  LGT RAIN  73  43  33 W13       30.24R
SCHRIEVER AFB  NOT AVBL
ELLICOTT       NOT AVBL
FALCON         CLOUDY    77  33  20 NE7       30.27F
FORT CARSON    FAIR      80  43  26 E7        30.18F
LIMON          FAIR      85  39  19 VRB5      30.16F
MONUMENT HILL  CLOUDY    72  39  30 NE6       30.30S
TRINIDAD       FAIR      80  41  24 S7        30.19F
$$

COZ042>045-048>051-090-091-282000-
...NORTHEAST COLORADO...

CITY           SKY/WX    TMP DP  RH WIND       PRES   REMARKS
GREELEY ARPT   FAIR      82  45  26 CALM      30.13F
AKRON          FAIR      85  46  25 SE9       30.13F
BURLINGTON     FAIR      82  52  35 SE14G21   30.14F
WRAY           NOT AVBL
STERLING       FAIR      88  54  31 S7        30.08F
HOLYOKE        FAIR      88  52  29 S8G20     30.10S
FORT MORGAN    FAIR      86  47  25 SE5       30.13F
$$

COZ086-089-092>099-282000-
...SOUTHEAST COLORADO...

CITY           SKY/WX    TMP DP  RH WIND       PRES   REMARKS
PUEBLO         FAIR      88  44  21 W8        30.11F
LA JUNTA       FAIR      86  49  27 VRB5      30.10F
LAMAR          FAIR      86  57  37 VRB5      30.07F
SPRINGFIELD      N/A     81  59  47 S13       30.12F
$$




USA.gov is the U.S. government's official web portal to all federal, state and local government web resources and services.